Overview Statistics Trail Chart Weather Telemetry Raw packets
 

This is the latest recevied weather packets stored in our database for station/object K7FLA. If no packets are shown the sender has not sent any weather packets the latest 10 day(s).

<< 4 5 6 7 8 9 10 >>
Time Temp. Humidity Pressure Rain* Wind** Luminosity Snow
1788637956 33.89° C 20% 1096.6 hPa 0 mm - 517 W/m² -
1788637652 33.89° C 18% 1096.7 hPa 0 mm - 963 W/m² -
1788637351 33.89° C 16% 1096.5 hPa 0 mm - 919 W/m² -
1788637051 33.89° C 18% 1096.6 hPa 0 mm - 887 W/m² -
1788636746 33.89° C 19% 1096.7 hPa 0 mm - 464 W/m² -
1788636441 34.44° C 19% 1096.7 hPa 0 mm - 508 W/m² -
1788636138 33.89° C 20% 1096.9 hPa 0 mm - 824 W/m² -
1788635837 34.44° C 18% 1096.8 hPa 0 mm - 224 W/m² -
1788635535 35° C 17% 1096.8 hPa 0 mm - 423 W/m² -
1788635234 35° C 16% 1096.8 hPa 0 mm - 778 W/m² -
1788634933 35° C 18% 1096.8 hPa 0 mm - 607 W/m² -
1788634632 34.44° C 17% 1096.9 hPa 0 mm - 787 W/m² -
1788634327 33.89° C 13% 1097.1 hPa 0 mm - 779 W/m² -
1788634027 33.89° C 14% 1097 hPa 0 mm - 807 W/m² -
1788633726 33.89° C 15% 1096.9 hPa 0 mm - 720 W/m² -
1788633419 33.89° C 14% 1097.1 hPa 0 mm - 537 W/m² -
1788633115 33.89° C 13% 1096.9 hPa 0 mm - 723 W/m² -
1788632815 34.44° C 15% 1097.1 hPa 0 mm - 762 W/m² -
1788632514 33.89° C 13% 1097.1 hPa 0 mm - 768 W/m² -
1788632210 34.44° C 13% 1097.3 hPa 0 mm - 753 W/m² -
1788631908 34.44° C 14% 1097.3 hPa 0 mm - 671 W/m² -
1788631603 34.44° C 15% 1097.3 hPa 0 mm - 728 W/m² -
1788631299 34.44° C 16% 1097.3 hPa 0 mm - 743 W/m² -
1788630997 34.44° C 14% 1097.3 hPa 0 mm - 622 W/m² -
1788630693 33.89° C 18% 1097 hPa 0 mm - 808 W/m² -

* Rain latest hour (hover to see other rain measurements)
** Current wind speed in m/s (hover to see current wind gust speed)